Terug naar catalogus

FENGYUN 1C DEB

ActiefPO
NORAD 29895·DEBRIS·🇨🇳 China

Gelanceerd May 10, 1999 vanaf Taiyuan Satellite Launch Center

Loading…

Volgende Passages (komende 24 uur)

TLE

VersSource: Space-Track

Epoch: Sep 14, 2026, 09:00 UTC

1 29895U 99025GR  26257.37503310  .00002607  00000-0  98072-3 0  9996
2 29895  99.9080  38.5472 0293590 310.5849  72.3805 14.11457982994095

Volg FENGYUN 1C DEB in realtime met AllMySat

Download on the App Store